Regional Weather Roundup
Issued by NWS Kansas City/Pleasant Hill, MO

Home | Current Version | Previous Version | Text Only | Print | Product List | Glossary On
Versions: 1 2 3 4 5 6 7 8 9 10 11 12 13 14 15 16 17 18 19 20 21 22 23 24 25 26 27
000
ASUS43 KEAX 231410
RWREAX

WEATHER ROUNDUP FOR EASTERN KANSAS AND NORTHWEST MISSOURI
NATIONAL WEATHER SERVICE KANSAS CITY/PLEASANT HILL MO
800 AM CST THU FEB 23 2017

KSZ040-057-103>105-MOZ028-029-037-043-231500-
...KANSAS CITY METROPOLITAN AREA...

CITY           SKY/WX    TMP DP  RH WIND       PRES   REMARKS
K.C. INTL      CLOUDY    49  40  71 NE14      29.71R
K.C. DOWNTOWN  CLOUDY    51  40  65 NE14      29.69S
LEES SUMMIT    CLOUDY    50  42  74 NE16      29.68S
OLATHE - IXD   CLOUDY    51  40  65 NE14G21   29.67R
OLATHE - OJC   CLOUDY    50  41  71 NE14      29.65F
LAWRENCE       PTSUNNY   51  40  65 NE12G21   29.68S

$$

MOZ001>008-011>017-020>025-030>033-038>040-044>046-053-054-231500-
...NORTHERN AND CENTRAL MISSOURI...

CITY           SKY/WX    TMP DP  RH WIND       PRES   REMARKS
ST. JOSEPH     LGT RAIN  45  42  89 NE12      29.74R
WARRENSBURG    PTSUNNY   50  41  71 NE9       29.69F
WHITEMAN AFB   PTSUNNY   52  47  83 NE9       29.69R
CLINTON        CLOUDY    50  50 100 E6        29.68S FOG
SEDALIA        CLOUDY    53  47  79 NE10      29.72S
WARSAW         NOT AVBL
CHILLICOTHE      N/A     45  39  79 NE8       29.77R
KIRKSVILLE     CLOUDY    40  38  93 N9        29.80R WCI  34

$$

MOZ041-047>049-056>058-063>065-088>090-097-231500-
...EASTERN AND SOUTHERN MISSOURI...

CITY           SKY/WX    TMP DP  RH WIND       PRES   REMARKS
ST. LOUIS INTL PTSUNNY   56  52  86 SE5       29.73R
SPIRIT OF STL  CLOUDY    49  49 100 CALM      29.71R FOG
COLUMBIA       CLOUDY    52  50  93 E6        29.73R
JEFFERSON CITY FOG       48  48 100 CALM      29.73R VSB 1/4
ROLLA          FOG       53  53 100 S6        29.72R VSB<1/4
OSAGE BEACH    CLOUDY    55  54  96 SE6       29.72S
SPRINGFIELD    CLOUDY    54  53  97 SE14      29.68S FOG
BRANSON        FOG       52  52 100 SE8       29.71R VSB 1/2
JOPLIN         CLOUDY    57  53  86 SE10      29.61F
WEST PLAINS    FOG       53  53 100 S5        29.76R VSB 1/2

$$

IAZ060-094-KSZ022-034>040-054-083-096-NEZ052-066-093-231500-
...KANSAS...SOUTHEAST NEBRASKA AND IOWA...

CITY           SKY/WX    TMP DP  RH WIND       PRES   REMARKS
TOPEKA         MOCLDY    50  40  68 NE9       29.68R
MANHATTAN      CLOUDY    50  38  63 E16       29.64F
EMPORIA        MOCLDY    50  40  68 NE13      29.63R
CHANUTE        CLOUDY    53  49  86 NE6       29.61S
WICHITA        MOCLDY    52  41  66 E15       29.56F
OMAHA          CLOUDY    37  32  82 NE14      29.81F WCI  28
LINCOLN        CLOUDY    37  34  89 NE16      29.78F WCI  28
FALLS CITY     LGT RAIN  40  37  89 NE10      29.75R WCI  33
LAMONI         CLOUDY    39  37  92 NE14G23   29.77S WCI  31
DES MOINES     CLOUDY    40  36  86 NE9       29.83R WCI  34

$$





USA.gov is the U.S. government's official web portal to all federal, state and local government web resources and services.